| time (UTC) | temp F | wind direction | speed MPH | gust MPH | rain 1hr in | rain 24hr in | rain mn in | humidity % | barometer mb |
| 20260507152525 | 59 | 29 | 3.0 | 3.0 | 0.00 | 0.00 | 0.00 | 47 | 1014.9 |
| 20260507145521 | 57 | 300 | 2.0 | 2.0 | 0.00 | 0.00 | 0.00 | 50 | 1015.2 |
| 20260507142520 | 55 | 198 | 2.0 | 2.0 | 0.00 | 0.00 | 0.00 | 58 | 1016.0 |
| 20260507135520 | 54 | 352 | 2.0 | 2.0 | 0.00 | 0.00 | 0.00 | 52 | 1016.7 |
| 20260507132517 | 53 | 264 | 2.0 | 2.0 | 0.00 | 0.00 | 0.00 | 56 | 1016.7 |
| 20260507125518 | 51 | 328 | 3.0 | 3.0 | 0.00 | 0.00 | 0.00 | 59 | 1016.7 |
| 20260507122515 | 50 | 108 | 0.0 | 0.0 | 0.00 | 0.00 | 0.00 | 63 | 1016.7 |
| 20260507115511 | 50 | 354 | 0.0 | 0.0 | 0.00 | 0.00 | 0.00 | 63 | 1016.7 |
| 20260507112509 | 49 | 174 | 0.0 | 0.0 | 0.00 | 0.00 | 0.00 | 64 | 1016.3 |
| 20260507105506 | 49 | 120 | 2.0 | 2.0 | 0.00 | 0.00 | 0.00 | 66 | 1016.0 |
| 20260507102504 | 48 | 72 | 0.0 | 0.0 | 0.00 | 0.00 | 0.00 | 71 | 1015.6 |
| 20260507095502 | 49 | 96 | 0.0 | 0.0 | 0.00 | 0.00 | 0.00 | 63 | 1015.6 |
| 20260507092502 | 49 | 72 | 0.0 | 0.0 | 0.00 | 0.00 | 0.00 | 65 | 1015.2 |
| 20260507085459 | 50 | 11 | 0.0 | 0.0 | 0.00 | 0.00 | 0.00 | 62 | 1014.9 |
| 20260507082456 | 50 | 30 | 2.0 | 2.0 | 0.00 | 0.00 | 0.00 | 59 | 1014.9 |
| 20260507075452 | 50 | 193 | 0.0 | 0.0 | 0.00 | 0.00 | 0.00 | 66 | 1014.9 |
| 20260507072451 | 50 | 83 | 3.0 | 3.0 | 0.00 | 0.00 | 0.00 | 69 | 1015.2 |
| 20260507065451 | 51 | 132 | 0.0 | 0.0 | 0.00 | 0.00 | 0.00 | 73 | 1015.2 |
| 20260507062446 | 51 | 24 | 0.0 | 0.0 | 0.00 | 0.00 | 0.00 | 76 | 1015.2 |
| 20260507055445 | 52 | 30 | 2.0 | 2.0 | 0.00 | 0.00 | 0.00 | 80 | 1015.2 |
| 20260507052441 | 52 | 53 | 4.0 | 4.0 | 0.00 | 0.00 | 0.00 | 79 | 1014.9 |
| 20260507045438 | 53 | 0 | 2.0 | 2.0 | 0.00 | 0.00 | 0.00 | 81 | 1014.9 |
| 20260507042435 | 53 | 18 | 2.0 | 2.0 | 0.00 | 0.00 | 0.00 | 81 | 1014.9 |
| 20260507035430 | 53 | 349 | 2.0 | 2.0 | 0.00 | 0.23 | 0.23 | 80 | 1015.6 |
| 20260507032425 | 54 | 10 | 2.0 | 2.0 | 0.00 | 0.23 | 0.23 | 78 | 1014.9 |
| 20260507025423 | 54 | 6 | 2.0 | 2.0 | 0.00 | 0.23 | 0.23 | 81 | 1015.2 |
| 20260507022423 | 54 | 9 | 2.0 | 2.0 | 0.00 | 0.23 | 0.23 | 79 | 1014.5 |
| 20260507015421 | 54 | 283 | 2.0 | 2.0 | 0.00 | 0.23 | 0.23 | 82 | 1014.9 |
| 20260507012419 | 55 | 10 | 3.0 | 3.0 | 0.00 | 0.23 | 0.23 | 83 | 1014.9 |
| 20260507005415 | 56 | 25 | 2.0 | 2.0 | 0.00 | 0.23 | 0.23 | 84 | 1014.9 |
| 20260507002410 | 56 | 347 | 2.0 | 2.0 | 0.00 | 0.23 | 0.23 | 83 | 1014.5 |
| 20260506235408 | 57 | 353 | 4.0 | 4.0 | 0.00 | 0.23 | 0.23 | 82 | 1013.9 |
| 20260506232406 | 58 | 354 | 4.0 | 4.0 | 0.00 | 0.23 | 0.23 | 81 | 1012.9 |
| 20260506225404 | 60 | 0 | 2.0 | 2.0 | 0.00 | 0.23 | 0.23 | 80 | 1012.9 |
| 20260506222401 | 60 | 337 | 3.0 | 3.0 | 0.00 | 0.23 | 0.23 | 80 | 1012.9 |
| 20260506215359 | 61 | 324 | 3.0 | 3.0 | 0.00 | 0.23 | 0.23 | 79 | 1012.5 |
| 20260506212358 | 62 | 328 | 5.0 | 5.0 | 0.00 | 0.23 | 0.23 | 81 | 1011.7 |
| 20260506205355 | 64 | 333 | 2.0 | 2.0 | 0.00 | 0.23 | 0.23 | 81 | 1011.4 |
| 20260506202353 | 64 | 323 | 2.0 | 2.0 | 0.00 | 0.23 | 0.23 | 88 | 1011.1 |
| 20260506195349 | 64 | 232 | 2.0 | 2.0 | 0.00 | 0.23 | 0.23 | 89 | 1010.7 |
| 20260506192347 | 64 | 234 | 1.0 | 1.0 | 0.00 | 0.23 | 0.23 | 91 | 1010.7 |
| 20260506185345 | 62 | 168 | 2.0 | 2.0 | 0.00 | 0.23 | 0.23 | 94 | 1011.1 |
| 20260506182344 | 62 | 192 | 2.0 | 2.0 | 0.00 | 0.23 | 0.23 | 94 | 1011.4 |
| 20260506175344 | 61 | 210 | 4.0 | 5.0 | 0.00 | 0.23 | 0.23 | 95 | 1011.4 |
| 20260506172343 | 61 | 222 | 2.0 | 2.0 | 0.00 | 0.23 | 0.23 | 93 | 1011.1 |
| 20260506165340 | 61 | 204 | 3.0 | 3.0 | 0.00 | 0.23 | 0.23 | 93 | 1011.1 |
| 20260506162337 | 61 | 234 | 3.0 | 3.0 | 0.00 | 0.23 | 0.23 | 91 | 1011.4 |
| 20260506155332 | 60 | 228 | 2.0 | 2.0 | 0.00 | 0.23 | 0.23 | 91 | 1011.1 |